Cold Bay, AK

11:23 PM AKDT on March 24, 2017 (GMT -0800)
Cold Bay

Weather History for PACD - November, 2012

Change the Weather History Date:

Friday, November 23, 2012

  Actual Average Record
Temperature  
Mean Temperature 23 °F 34 °F  
Max Temperature 25 °F 38 °F 54 °F (1981)
Min Temperature 21 °F 29 °F 13 °F (1986)
Degree Days  
Heating Degree Days 42 31  
Month to date heating degree days 761 689  
Since 1 July heating degree days 3027 2796  
Cooling Degree Days 0 0  
Month to date cooling degree days 0 0  
Year to date cooling degree days 0 0  
Moisture  
Dew Point 16 °F    
Average Humidity 75    
Maximum Humidity 86    
Minimum Humidity 64    
Precipitation  
Precipitation 0.02 in 0.18 in 1.11 in (1946)
Month to date precipitation 3.33 3.77  
Year to date precipitation 39.21 36.00  
Snow  
Snow 0.20 in 0.40 in 3.20 in (1960)
Month to date snowfall 2.2 7.3  
Since 1 July snowfall 3.2 9.7  
Since 1 September snowfall 3.2 9.7  
Snow Depth T in    
Sea Level Pressure  
Sea Level Pressure 29.76 in    
Wind  
Wind Speed 14 mph (NW)    
Max Wind Speed 25 mph    
Max Gust Speed 30 mph    
Visibility 8 miles    
Events Snow    
T = Trace of Precipitation, MM = Missing Value Source: NWS Daily Summary

Daily Weather History Graph

Daily Weather History Graph

Search for Another Location

Airport or City:

Trip Planner

Search our weather history database for the weather conditions in past years. The results will help you decide how hot, cold, wet, or windy it might be!

Date:

Astronomy

Nov. 23, 2012 Rise Set
Actual Time 9:40 AM AKST 5:33 PM AKST
Civil Twilight 8:57 AM AKST 6:16 PM AKST
Nautical Twilight 8:11 AM AKST 7:02 PM AKST
Astronomical Twilight 7:28 AM AKST 7:46 PM AKST
Moon 3:29 PM AKST (11/23) 4:32 AM AKST (11/23)
Length of Visible Light 9h 18m
Length of Day
7h 53m
Waxing Gibbous, 81% of the Moon is Illuminated
Nov 23
Waxing Gibbous
Nov 28
Full
Dec 6
Last Quarter
Dec 12
New
Dec 19
First Quarter

Hourly Weather History & Observations

Time (AKST) Temp. Windchill Dew Point Humidity Pressure Visibility Wind Dir Wind Speed Gust Speed Precip Events Conditions
12:53 AM 24.1 °F 12.0 °F 18.0 °F 77% 29.76 in 10.0 mi NNW 13.8 mph - 0.00 in   Overcast
1:53 AM 24.1 °F 11.0 °F 19.0 °F 81% 29.75 in 10.0 mi NW 16.1 mph - N/A   Overcast
3:53 AM 25.0 °F 11.7 °F 18.0 °F 75% 29.75 in 10.0 mi NNW 17.3 mph - N/A   Overcast
4:53 AM 25.0 °F 10.9 °F 18.0 °F 75% 29.74 in 10.0 mi NNW 19.6 mph 23.0 mph N/A   Overcast
5:53 AM 24.1 °F 10.6 °F 18.0 °F 77% 29.73 in 10.0 mi NNW 17.3 mph - 0.00 in   Overcast
6:53 AM 24.1 °F 10.6 °F 18.0 °F 77% 29.75 in 9.0 mi NW 17.3 mph 24.2 mph 0.00 in Snow Light Snow
7:53 AM 24.1 °F 9.8 °F 17.1 °F 75% 29.75 in 9.0 mi NW 19.6 mph - 0.01 in   Overcast
8:53 AM 23.0 °F 10.1 °F 17.1 °F 78% 29.75 in 5.0 mi NW 15.0 mph - 0.00 in Snow Light Snow
9:34 AM 23.0 °F 8.7 °F 17.6 °F 80% 29.75 in 7.0 mi NW 18.4 mph - 0.00 in Snow Light Snow
9:53 AM 23.0 °F 9.6 °F 17.1 °F 78% 29.75 in 9.0 mi NW 16.1 mph - 0.00 in Snow Light Snow
10:26 AM 21.2 °F 4.9 °F 17.6 °F 86% 29.76 in 3.0 mi NW 23.0 mph - 0.00 in Snow Light Snow
10:39 AM 23.0 °F 7.2 °F 17.6 °F 80% 29.76 in 3.0 mi NW 23.0 mph 28.8 mph 0.00 in Snow Light Snow
10:53 AM 23.0 °F 8.0 °F 16.0 °F 74% 29.76 in 8.0 mi NW 20.7 mph 26.5 mph 0.00 in Snow Light Snow
11:53 AM 23.0 °F 9.6 °F 15.1 °F 72% 29.76 in 9.0 mi NNW 16.1 mph - 0.00 in Snow Light Snow
12:53 PM 23.0 °F 8.3 °F 15.1 °F 72% 29.75 in 9.0 mi NNW 19.6 mph - 0.00 in Snow Light Snow
1:53 PM 23.0 °F 8.3 °F 14.0 °F 68% 29.75 in 9.0 mi NNW 19.6 mph - 0.00 in Snow Light Snow
2:53 PM 23.0 °F 11.1 °F 16.0 °F 74% 29.76 in 4.0 mi NW 12.7 mph - 0.00 in Snow Light Snow
2:56 PM 23.0 °F 10.6 °F 15.8 °F 74% 29.75 in 1.5 mi NNW 13.8 mph - 0.00 in Snow Light Snow
3:08 PM 21.2 °F 10.1 °F 15.8 °F 80% 29.75 in 3.0 mi NNW 10.4 mph - 0.01 in Snow Light Snow
3:53 PM 21.9 °F 9.8 °F 15.1 °F 75% 29.76 in 9.0 mi NNW 12.7 mph - 0.01 in Snow Light Snow
4:53 PM 21.9 °F 9.2 °F 14.0 °F 72% 29.77 in 10.0 mi NW 13.8 mph - 0.00 in   Overcast
5:53 PM 21.9 °F 9.2 °F 14.0 °F 72% 29.78 in 10.0 mi NW 13.8 mph - 0.00 in   Overcast
6:53 PM 21.0 °F 11.4 °F 15.1 °F 78% 29.78 in 9.0 mi NNW 8.1 mph - 0.00 in Snow Light Snow
7:53 PM 21.9 °F 13.4 °F 15.1 °F 75% 29.78 in 10.0 mi NW 6.9 mph - 0.00 in   Overcast
8:53 PM 21.9 °F 10.4 °F 15.1 °F 75% 29.79 in 10.0 mi NNW 11.5 mph - N/A   Overcast
9:53 PM 21.9 °F 17.2 °F 15.1 °F 75% 29.80 in 10.0 mi NW 3.5 mph - N/A   Overcast
10:53 PM 21.9 °F 12.5 °F 16.0 °F 78% 29.80 in 10.0 mi WNW 8.1 mph - N/A   Overcast
11:53 PM 23.0 °F 13.1 °F 16.0 °F 74% 29.81 in 10.0 mi NW 9.2 mph - N/A   Overcast